sat.trackr.live / text

‹ back to catalog

STARLINK-37575

NORAD 69454 · 2026-127M

PAYLOAD ACTIVE UNKNOWN

§ Identity

Operator
Country
US
Launch date
2026-06-08
Launch site
AFETR
Launch vehicle
Mass (kg)
RCS (m²)

Purposes: comms

External: N2YO · Heavens-Above · Gunter

§ Orbital elements

Epoch: 2026-09-20T00:21:08.980128Z

Period
93.85 min
Inclination
53.1590°
Eccentricity
0.0001135
Mean motion
15.34397661 rev/d
Perigee alt
461.9 km
Apogee alt
463.5 km
Semi-major
6,840.8 km
B*
7.5926e-4
RAAN
168.2759°
Arg perigee
69.2064°
Mean anomaly
290.9060°
Rev number
1,611

§ Raw data

STARLINK-375751 69454U 26127M   26263.01468727  .00025362  00000+0  75926-3 0  99992 69454  53.1590 168.2759 0001135  69.2064 290.9060 15.34397661 16118

JSON: /api/v1/satellites/69454 · /tle

For live sub-satellite position, see the globe view (requires WebGL).

§ Visibility from observer

Set your observer location to see the next 7 days of passes ≥ 10°. The values pass through the URL so the page stays shareable.

No JS? Fill the form by hand. The geolocation button needs JavaScript.